map of BHM home
Great Circle Mapper logo
BHM - Airport
Location
City:  Birmingham, Alabama, United States
Name:Birmingham-Shuttlesworth International Airport
ICAO / IATA:KBHM / BHM
FAA:BHM

Details
Type:Airport (Part 139 Class I)
Use:Public/Civil, International (customs landing rights)
Latitude:3333'50"N (33.563889)
Longitude:8645'08"W (-86.752305)
Datum:WGS 1984
Elevation:650 ft (198 m)
Variation:3.2W (WMM2015 magnetic declination)
Runways:2
Longest:11998 × 150 ft (3657 × 45.5 m), paved

Time
Time Zone:UTC-6 (DST-5)
Local Time:

Weather
METAR:KBHM 172053Z 02007KT 10SM OVC018 07/02 A3022 RMK AO2 SLP237 T00720017 56017
TAF:KBHM 171720Z 1718/1818 36005KT P6SM OVC015
FM172300 00000KT P6SM SCT250
FM181400 01004KT P6SM OVC080

Related Locations
Nearby:
Farthest:MGV: 11188 mi / 18006 km
Margaret River, WA, AU

Find:

   beyond  
but within

Other Information
Maps:
Delays:
NOTAMs:
Links:
Sources:

  
flag of United States
flag of Alabama
  

Airport Diagram

Airport diagram for BHM

Airport diagram PDF

Sectional Chart

Flight Planning
at skyvector.com

Satellite Image

Google Maps Satellite View

 

Copyright © 2004-2014 Karl L. Swartz. All rights reserved.
The Great Circle Mapper name and logo are trademarks of the Great Circle Mapper.
All other trademarks mentioned herein belong to their respective owners.
Please see credits for attibutions and further copyright information.

  Follow gcmap on Facebook Follow gcmap on Twitter

hCard Microformat

Geo Microformat